Mojave, CA

1:10 PM PST on December 12, 2019 (GMT -0800)
Mojave

Weather History for KMHV - October, 2019

Change the Weather History Date:

Saturday, October 5, 2019

  Actual Average Record
Temperature  
Mean Temperature 63 °F -  
Max Temperature 82 °F 83 °F 96 °F (1980)
Min Temperature 44 °F 54 °F 39 °F (1969)
Degree Days  
Heating Degree Days 2    
Growing Degree Days 13 (Base 50)    
Moisture  
Dew Point 25 °F    
Average Humidity 24    
Maximum Humidity 46    
Minimum Humidity 9    
Precipitation  
Precipitation 0.00 in - - ()
Sea Level Pressure  
Sea Level Pressure 30.09 in    
Wind  
Wind Speed 3 mph (West)    
Max Wind Speed 16 mph    
Max Gust Speed 12 mph    
Visibility 10 miles    
Events      
Averages and records for this station are not official NWS values.
T = Trace of Precipitation, MM = Missing Value Source: NWS Daily Summary

Daily Weather History Graph

Daily Weather History Graph

Search for Another Location

Airport or City:

Astronomy

Oct. 05, 2019 Rise Set
Actual Time 6:50 AM PDT 6:31 PM PDT
Civil Twilight 6:25 AM PDT 6:56 PM PDT
Nautical Twilight 5:55 AM PDT 7:25 PM PDT
Astronomical Twilight 5:26 AM PDT 7:55 PM PDT
Moon 2:07 PM PDT (10/5) No Moon Set
Length of Visible Light 12h 31m
Length of Day
11h 40m
Waxing Crescent, 51% of the Moon is Illuminated
Oct 5
Waxing Crescent
Oct 13
Full
Oct 21
Last Quarter
Oct 27
New
Nov 4
First Quarter

Hourly Weather History & Observations

Time (PDT) Temp. Windchill Dew Point Humidity Pressure Visibility Wind Dir Wind Speed Gust Speed Precip Events Conditions
12:00 AM 60.8 °F - 26.6 °F 27% 30.08 in 10.0 mi ESE 4.6 mph 11.5 mph N/A   Partly Cloudy
12:20 AM 59.0 °F - 28.4 °F 31% 30.09 in 10.0 mi Calm Calm - N/A   Clear
12:40 AM 59.0 °F - 28.4 °F 31% 30.08 in 10.0 mi Calm Calm - N/A   Clear
1:00 AM 55.4 °F - 30.2 °F 38% 30.08 in 10.0 mi SW 6.9 mph - N/A   Clear
1:20 AM 55.4 °F - 28.4 °F 36% 30.09 in 10.0 mi Calm Calm - N/A   Clear
1:40 AM 55.4 °F - 28.4 °F 36% 30.09 in 10.0 mi Calm Calm - N/A   Clear
2:00 AM 53.6 °F - 26.6 °F 35% 30.09 in 10.0 mi Calm Calm - N/A   Clear
2:20 AM 51.8 °F - 24.8 °F 35% 30.09 in 10.0 mi Calm Calm - N/A   Clear
2:40 AM 53.6 °F - 26.6 °F 35% 30.09 in 10.0 mi Calm Calm - N/A   Clear
3:00 AM 53.6 °F - 26.6 °F 35% 30.09 in 10.0 mi Calm Calm - N/A   Clear
3:20 AM 55.4 °F - 26.6 °F 33% 30.08 in 10.0 mi WNW 3.5 mph - N/A   Clear
3:40 AM 53.6 °F - 24.8 °F 33% 30.08 in 10.0 mi NNW 8.1 mph - N/A   Clear
4:00 AM 57.2 °F - 24.8 °F 29% 30.08 in 10.0 mi NNW 6.9 mph - N/A   Clear
4:20 AM 57.2 °F - 26.6 °F 31% 30.09 in 10.0 mi North 5.8 mph - N/A   Clear
4:40 AM 51.8 °F - 24.8 °F 35% 30.09 in 10.0 mi Calm Calm - N/A   Clear
5:00 AM 50.0 °F - 24.8 °F 37% 30.10 in 10.0 mi Calm Calm - N/A   Clear
5:20 AM 48.2 °F - 24.8 °F 40% 30.10 in 10.0 mi WSW 3.5 mph - N/A   Clear
5:40 AM 48.2 °F - 24.8 °F 40% 30.11 in 10.0 mi WSW 6.9 mph - N/A   Clear
6:00 AM 48.2 °F - 24.8 °F 40% 30.12 in 10.0 mi Calm Calm - N/A   Clear
6:20 AM 48.2 °F - 24.8 °F 40% 30.12 in 10.0 mi Calm Calm - N/A   Clear
6:40 AM 44.6 °F - 24.8 °F 46% 30.13 in 10.0 mi Calm Calm - N/A   Clear
7:00 AM 44.6 °F 42.2 °F 23.0 °F 43% 30.13 in 10.0 mi WNW 4.6 mph - N/A   Clear
7:20 AM 48.2 °F - 24.8 °F 40% 30.14 in 7.0 mi WNW 4.6 mph - N/A   Clear
7:40 AM 51.8 °F - 24.8 °F 35% 30.14 in 10.0 mi WNW 3.5 mph - N/A   Clear
8:00 AM 55.4 °F - 24.8 °F 31% 30.15 in 10.0 mi Calm Calm - N/A   Clear
8:20 AM 59.0 °F - 28.4 °F 31% 30.15 in 9.0 mi Calm Calm - N/A   Clear
8:40 AM 59.0 °F - 28.4 °F 31% 30.16 in 10.0 mi Calm Calm - N/A   Clear
9:00 AM 62.6 °F - 30.2 °F 30% 30.16 in 10.0 mi Calm Calm - N/A   Clear
9:20 AM 62.6 °F - 30.2 °F 30% 30.16 in 10.0 mi Calm Calm - N/A   Clear
9:40 AM 64.4 °F - 30.2 °F 28% 30.17 in 10.0 mi Calm Calm - N/A   Clear
10:00 AM 66.2 °F - 28.4 °F 24% 30.17 in 10.0 mi Calm Calm - N/A   Clear
10:20 AM 66.2 °F - 28.4 °F 24% 30.17 in 10.0 mi Calm Calm - N/A   Clear
10:40 AM 68.0 °F - 28.4 °F 23% 30.17 in 10.0 mi Calm Calm - N/A   Clear
11:00 AM 69.8 °F - 28.4 °F 21% 30.17 in 10.0 mi Variable 5.8 mph - N/A   Clear
11:20 AM 71.6 °F - 26.6 °F 19% 30.16 in 10.0 mi Calm Calm - N/A   Clear
11:40 AM 73.4 °F - 23.0 °F 15% 30.16 in 10.0 mi Calm Calm - N/A   Clear
12:00 PM 75.2 °F - 21.2 °F 13% 30.16 in 10.0 mi ESE 4.6 mph - N/A   Clear
12:20 PM 75.2 °F - 19.4 °F 12% 30.15 in 10.0 mi ENE 5.8 mph - N/A   Clear
12:40 PM 75.2 °F - 19.4 °F 12% 30.14 in 10.0 mi Calm Calm - N/A   Clear
1:00 PM 77.0 °F - 19.4 °F 12% 30.13 in 10.0 mi East 5.8 mph - N/A   Clear
1:20 PM 77.0 °F - 19.4 °F 12% 30.12 in 10.0 mi Variable 4.6 mph - N/A   Clear
1:40 PM 78.8 °F - 17.6 °F 10% 30.10 in 10.0 mi East 5.8 mph - N/A   Clear
2:00 PM 78.8 °F - 17.6 °F 10% 30.09 in 10.0 mi Calm Calm - N/A   Clear
2:20 PM 78.8 °F - 17.6 °F 10% 30.08 in 10.0 mi SE 5.8 mph - N/A   Clear
2:40 PM 80.6 °F - 17.6 °F 10% 30.07 in 10.0 mi Calm Calm - N/A   Clear
3:00 PM 80.6 °F - 17.6 °F 10% 30.07 in 10.0 mi Variable 3.5 mph - N/A   Clear
3:20 PM 80.6 °F - 17.6 °F 10% 30.06 in 10.0 mi SE 5.8 mph - N/A   Clear
3:40 PM 80.6 °F - 17.6 °F 10% 30.06 in 10.0 mi SSE 5.8 mph - N/A   Clear
4:00 PM 80.6 °F - 15.8 °F 9% 30.05 in 10.0 mi South 6.9 mph - N/A   Clear
4:20 PM 82.4 °F - 17.6 °F 9% 30.05 in 10.0 mi South 5.8 mph - N/A   Clear
4:40 PM 82.4 °F - 17.6 °F 9% 30.04 in 10.0 mi South 6.9 mph - N/A   Clear
5:00 PM 82.4 °F - 17.6 °F 9% 30.03 in 10.0 mi SW 6.9 mph - N/A   Clear
5:20 PM 82.4 °F - 17.6 °F 9% 30.03 in 10.0 mi South 11.5 mph - N/A   Clear
5:40 PM 82.4 °F - 19.4 °F 10% 30.03 in 10.0 mi SSW 9.2 mph - N/A   Clear
6:00 PM 80.6 °F - 28.4 °F 15% 30.03 in 10.0 mi West 9.2 mph - N/A   Clear
6:20 PM 77.0 °F - 30.2 °F 18% 30.03 in 10.0 mi West 6.9 mph - N/A   Clear
6:40 PM 73.4 °F - 30.2 °F 20% 30.03 in 10.0 mi WNW 9.2 mph - N/A   Clear
7:00 PM 73.4 °F - 32.0 °F 22% 30.03 in 10.0 mi WNW 10.4 mph - N/A   Clear
7:20 PM 71.6 °F - 30.2 °F 22% 30.04 in 10.0 mi WNW 6.9 mph - N/A   Clear
7:40 PM 69.8 °F - 30.2 °F 23% 30.04 in 10.0 mi WSW 5.8 mph - N/A   Clear
8:00 PM 69.8 °F - 28.4 °F 21% 30.04 in 10.0 mi West 6.9 mph - N/A   Clear
8:20 PM 69.8 °F - 30.2 °F 23% 30.04 in 10.0 mi WNW 12.7 mph - N/A   Clear
8:40 PM 69.8 °F - 32.0 °F 25% 30.05 in 10.0 mi WNW 15.0 mph - N/A   Partly Cloudy
9:00 PM 69.8 °F - 30.2 °F 23% 30.05 in 10.0 mi WNW 16.1 mph - N/A   Clear
9:20 PM 69.8 °F - 28.4 °F 21% 30.05 in 10.0 mi WNW 11.5 mph - N/A   Clear
9:40 PM 68.0 °F - 26.6 °F 21% 30.06 in 10.0 mi WNW 8.1 mph - N/A   Clear
10:00 PM 66.2 °F - 26.6 °F 23% 30.06 in 10.0 mi Calm Calm - N/A   Clear
10:20 PM 66.2 °F - 24.8 °F 21% 30.06 in 10.0 mi Calm Calm - N/A   Clear
10:40 PM 64.4 °F - 21.2 °F 19% 30.07 in 10.0 mi NW 5.8 mph - N/A   Partly Cloudy
11:00 PM 62.6 °F - 21.2 °F 20% 30.08 in 10.0 mi Calm Calm - N/A   Partly Cloudy
11:20 PM 60.8 °F - 21.2 °F 22% 30.08 in 10.0 mi SSE 3.5 mph - N/A   Clear
11:40 PM 57.2 °F - 17.6 °F 21% 30.08 in 10.0 mi Calm Calm - N/A   Clear